SCP
0 0 0 0 0 0 0 0 0 0 0 0 0 0 0 0 0 0 0 0 0 0 0 0 0 0 0 0 0 0 1 0
0 0 0 0 0 0 0 0 0 0 0 0 0 0 0 0 0 0 0 0 0 0 0 0 0 0 0 0 0 0 0 0
0 0 0 0 0 0 0 0 0 0 0 0 0 0 0 0 0 0 0 0 0 0 0 0 0 0 0 0 0 0 0 0
0 0 0 0 0 0 0 0 0 0 0 0 0 0 0 0 0 0 0 0 0 0 0 0 0 0 0 0 0 0 0 0
0 0 0 0 0 0 0 0 0 0 0 0 0 0 0 0 0 0 0 0 0 0 0 0 0 0 0 0 0 0 0 0
0 0 0 0 0 0 0 0 0 0 0 0 0 0 0 0 0 0 0 0 0 0 0 0 0 0 0 0 0 0 0 0
0 0 0 0 0 0 0 0 0 0 0 0 0 0 0 0 0 0 0 0 0 0 0 0 0 0 0 0 0 0 0 0
0 0 0 0 0 0 0 0 0 0 0 0 0 0 0 0 0 0 0 0 0 0 0 0 0 0 0 0 0 0 0 0
0 0 0 0 0 0 0 0 0 0 0 0 0 0 0 0 0 0 0 0 0 0 0 0 0 0 0 0 0 0 0 0
0 0 0 0 0 0 0 0 0 0 0 0 0 0 0 0 0 0 0 0 -0 -0 -0 0 0 0 0 0 0 0 0 0
0 0 0 0 0 0 0 0 0 0 0 0 0 0 0 0 0 0 0 0 0 0 0 0 0 0 0 0 0 0 0 0
0 0 0 0 0 0 0 0 0 0 0 0 0 0 0 0 0 0 0 0 0 0 0 0 0 0 0 0 0 0 0 0
0 0 0 0 0 0 0 0 0 0 0 0 0 0 0 0 0 0 0 0 0 0 0 0 -0 0 -0 -0 0 -0 0 0
0 0 0 0 0 0 0 0 0 0 0 0 0 0 0 0 0 0 0 0 0 0 0 0 0 0 0 0 -0 -0 -0 0
0 0 0 0 0 0 0 0 0 0 0 0 0 0 0 0 0 0 0 0 0 -0 -0 -0 0 0 0 0 0 0 -0 -0
0 0 0 0 0 0 0 0 0 0 0 0 0 0 0 0 0 0 0 0 0 -0 -0 -0 0 0 0 0 0 0 0 0
0 0 0 0 0 0 0 0 0 0 0 0 0 0 0 0 0 0 0 0 0 0 0 0 0 -0 0 0 0 0 0 0
0 0 0 0 0 0 0 0 0 0 0 0 0 0 0 0 0 0 0 0 0 -0 0 0 0 0 0 0 0 0 0 0
0 0 0 0 0 0 0 0 0 0 0 0 0 0 0 0 0 0 0 0 0 0 0 0 0 0 0 0 0 0 0 0
0 0 0 0 0 0 0 0 0 0 -0 0 0 0 0 0 0 0 0 0 0 0 0 0 0 0 0 0 0 0 0 0
Wind_Speed_500mb
34 33 29 30 28 24 26 26 17 21 19 17 16 20 25 24 24 34 30 31 16 27 30 32 27 35 30 28 32 26 24 36
31 33 29 27 23 20 19 18 21 22 18 19 19 21 27 28 26 32 34 37 20 29 27 23 13 27 27 29 29 26 39 43
36 34 25 20 19 17 18 14 28 29 23 23 23 27 27 31 28 33 35 29 30 30 34 29 23 29 35 21 19 26 17 20
23 25 18 14 14 14 17 23 23 30 23 32 30 30 35 29 28 34 32 28 33 37 33 28 30 34 34 39 25 19 20 27
27 20 18 16 17 14 20 18 30 32 28 33 31 29 33 23 24 34 41 40 45 45 39 31 28 39 42 48 47 42 39 25
21 16 14 6 10 20 17 16 22 38 34 31 31 27 28 25 25 25 34 45 48 41 36 31 32 40 32 32 33 35 37 45
16 14 16 16 12 12 12 22 32 42 28 27 28 23 26 23 28 32 46 53 46 35 32 30 33 38 40 36 37 34 36 42
16 14 21 14 10 17 21 24 33 27 30 21 20 19 23 28 31 48 45 39 40 29 29 27 29 41 31 28 31 34 32 34
24 19 10 13 12 13 14 26 34 28 25 31 28 23 24 24 28 31 29 32 36 37 37 33 29 32 35 35 33 33 32 29
17 20 8 13 10 9 17 31 38 29 29 29 35 28 24 26 29 28 31 34 33 31 35 32 31 35 33 34 35 30 30 27
30 19 11 11 11 12 16 31 30 34 31 28 28 26 25 23 27 29 29 34 35 31 40 33 28 25 24 28 27 28 31 27
26 15 14 9 10 16 15 17 28 38 28 23 25 28 25 27 26 29 27 36 39 40 32 38 30 22 21 19 17 16 16 21
20 15 7 3 6 18 13 12 27 36 26 26 22 22 20 23 25 24 29 37 43 41 30 38 37 34 24 19 17 19 13 18
23 9 5 3 12 17 24 15 24 27 25 27 28 26 24 26 24 25 26 29 36 38 37 41 40 41 25 15 16 14 13 7
18 11 3 16 19 19 15 20 23 25 29 30 27 28 24 23 28 18 22 27 30 35 41 41 39 37 31 21 14 17 13 12
20 8 13 17 24 14 13 24 29 20 25 26 34 31 30 21 20 22 22 26 23 27 32 35 34 30 32 34 30 26 28 19
12 15 11 16 19 12 14 22 16 21 25 24 26 30 25 27 24 24 25 31 18 24 25 31 30 31 33 33 29 30 25 26
10 6 10 13 14 13 11 15 15 18 20 21 29 21 27 21 23 14 18 25 23 20 24 24 26 23 27 31 35 32 33 31
11 15 17 13 17 10 12 16 17 19 21 25 33 32 23 14 14 20 25 26 20 18 19 17 21 25 28 33 28 27 25 27
20 23 17 17 8 12 13 18 16 16 23 20 33 26 27 18 19 17 20 32 13 20 15 16 23 29 29 20 19 20 18 23
Wind_Direction_500mb
103 95 93 87 79 80 69 48 40 56 21 21 6 350 339 339 331 334 320 314 330 315 313 318 316 323 324 307 284 264 217 226
114 104 99 86 79 72 60 41 45 27 21 359 356 340 336 322 337 330 314 321 316 297 271 271 300 314 307 304 300 289 271 260
112 98 97 96 83 71 40 13 356 2 7 345 354 345 325 327 322 325 321 332 294 298 277 269 263 283 281 273 265 292 298 317
126 120 110 94 71 63 43 22 12 347 360 331 349 334 317 317 335 316 307 300 298 299 288 279 262 285 273 264 239 256 291 299
131 121 96 78 73 40 10 9 332 326 333 332 329 317 334 344 328 313 306 310 311 308 296 268 273 273 281 271 264 262 270 272
119 128 99 51 34 23 7 336 322 320 345 351 341 345 343 332 313 306 308 314 312 308 302 284 277 291 269 273 267 270 266 268
115 97 93 69 55 12 337 342 333 339 6 352 351 343 340 327 315 327 316 322 321 300 305 299 288 300 290 277 266 265 262 265
124 85 103 90 38 342 352 339 334 356 2 333 339 336 344 326 320 321 328 348 331 342 317 309 302 308 303 286 285 274 268 273
132 137 68 39 356 3 350 346 349 4 0 355 344 345 334 332 342 332 330 339 340 338 327 313 292 297 295 304 299 285 276 275
136 126 143 12 353 9 351 350 355 349 2 359 358 352 357 358 326 341 345 336 342 342 325 315 302 290 280 282 284 289 287 272
146 134 84 31 18 352 326 344 355 358 359 1 358 359 355 329 341 350 337 345 342 341 343 340 331 315 299 289 285 283 284 281
148 133 88 45 349 335 316 332 357 357 356 360 353 358 342 347 338 349 353 344 353 353 343 349 334 340 335 322 310 306 302 295
103 88 39 358 18 4 339 321 354 358 355 336 344 341 353 339 338 348 345 342 353 350 357 5 9 356 321 312 312 309 305 310
112 105 162 38 19 26 343 24 11 353 344 344 341 336 348 346 341 351 344 356 347 358 2 359 359 0 355 342 312 319 321 254
111 105 178 42 16 20 357 18 360 355 3 355 348 352 349 350 328 339 351 349 346 350 355 360 3 20 14 19 42 8 331 288
136 99 44 14 8 8 358 357 354 354 359 3 355 0 353 341 332 3 356 338 343 352 355 359 8 23 35 54 45 55 54 70
87 72 33 6 358 5 5 357 358 354 358 343 353 338 347 350 8 6 345 346 8 342 356 3 14 37 48 45 42 42 47 68
133 19 2 39 13 359 21 1 348 351 357 342 339 332 337 3 351 357 353 344 352 358 16 3 18 28 34 45 41 42 48 53
85 41 92 45 360 29 17 353 349 350 354 336 343 344 345 340 1 352 348 347 0 33 10 3 35 27 36 37 35 25 44 51
50 45 29 20 30 34 359 340 344 357 331 352 344 6 17 21 10 17 358 357 56 40 10 44 41 40 22 28 43 43 54 47
Wind_Speed_850mb
34 33 29 30 28 24 26 26 17 21 19 17 16 20 25 24 24 34 30 31 16 27 30 32 27 35 30 28 32 26 24 36
31 33 29 27 23 20 19 18 21 22 18 19 19 21 27 28 26 32 34 37 20 29 27 23 13 27 27 29 29 26 39 43
36 34 25 20 19 17 18 14 28 29 23 23 23 27 27 31 28 33 35 29 30 30 34 29 23 29 35 21 19 26 17 20
23 25 18 14 14 14 17 23 23 30 23 32 30 30 35 29 28 34 32 28 33 37 33 28 30 34 34 39 25 19 20 27
27 20 18 16 17 14 20 18 30 32 28 33 31 29 33 23 24 34 41 40 45 45 39 31 28 39 42 48 47 42 39 25
21 16 14 6 10 20 17 16 22 38 34 31 31 27 28 25 25 25 34 45 48 41 36 31 32 40 32 32 33 35 37 45
16 14 16 16 12 12 12 22 32 42 28 27 28 23 26 23 28 32 46 53 46 35 32 30 33 38 40 36 37 34 36 42
16 14 21 14 10 17 21 24 33 27 30 21 20 19 23 28 31 48 45 39 40 29 29 27 29 41 31 28 31 34 32 34
24 19 10 13 12 13 14 26 34 28 25 31 28 23 24 24 28 31 29 32 36 37 37 33 29 32 35 35 33 33 32 29
17 20 8 13 10 9 17 31 38 29 29 29 35 28 24 26 29 28 31 34 33 31 35 32 31 35 33 34 35 30 30 27
30 19 11 11 11 12 16 31 30 34 31 28 28 26 25 23 27 29 29 34 35 31 40 33 28 25 24 28 27 28 31 27
26 15 14 9 10 16 15 17 28 38 28 23 25 28 25 27 26 29 27 36 39 40 32 38 30 22 21 19 17 16 16 21
20 15 7 3 6 18 13 12 27 36 26 26 22 22 20 23 25 24 29 37 43 41 30 38 37 34 24 19 17 19 13 18
23 9 5 3 12 17 24 15 24 27 25 27 28 26 24 26 24 25 26 29 36 38 37 41 40 41 25 15 16 14 13 7
18 11 3 16 19 19 15 20 23 25 29 30 27 28 24 23 28 18 22 27 30 35 41 41 39 37 31 21 14 17 13 12
20 8 13 17 24 14 13 24 29 20 25 26 34 31 30 21 20 22 22 26 23 27 32 35 34 30 32 34 30 26 28 19
12 15 11 16 19 12 14 22 16 21 25 24 26 30 25 27 24 24 25 31 18 24 25 31 30 31 33 33 29 30 25 26
10 6 10 13 14 13 11 15 15 18 20 21 29 21 27 21 23 14 18 25 23 20 24 24 26 23 27 31 35 32 33 31
11 15 17 13 17 10 12 16 17 19 21 25 33 32 23 14 14 20 25 26 20 18 19 17 21 25 28 33 28 27 25 27
20 23 17 17 8 12 13 18 16 16 23 20 33 26 27 18 19 17 20 32 13 20 15 16 23 29 29 20 19 20 18 23
Wind_Direction_850mb
103 95 93 87 79 80 69 48 40 56 21 21 6 350 339 339 331 334 320 314 330 315 313 318 316 323 324 307 284 264 217 226
114 104 99 86 79 72 60 41 45 27 21 359 356 340 336 322 337 330 314 321 316 297 271 271 300 314 307 304 300 289 271 260
112 98 97 96 83 71 40 13 356 2 7 345 354 345 325 327 322 325 321 332 294 298 277 269 263 283 281 273 265 292 298 317
126 120 110 94 71 63 43 22 12 347 360 331 349 334 317 317 335 316 307 300 298 299 288 279 262 285 273 264 239 256 291 299
131 121 96 78 73 40 10 9 332 326 333 332 329 317 334 344 328 313 306 310 311 308 296 268 273 273 281 271 264 262 270 272
119 128 99 51 34 23 7 336 322 320 345 351 341 345 343 332 313 306 308 314 312 308 302 284 277 291 269 273 267 270 266 268
115 97 93 69 55 12 337 342 333 339 6 352 351 343 340 327 315 327 316 322 321 300 305 299 288 300 290 277 266 265 262 265
124 85 103 90 38 342 352 339 334 356 2 333 339 336 344 326 320 321 328 348 331 342 317 309 302 308 303 286 285 274 268 273
132 137 68 39 356 3 350 346 349 4 0 355 344 345 334 332 342 332 330 339 340 338 327 313 292 297 295 304 299 285 276 275
136 126 143 12 353 9 351 350 355 349 2 359 358 352 357 358 326 341 345 336 342 342 325 315 302 290 280 282 284 289 287 272
146 134 84 31 18 352 326 344 355 358 359 1 358 359 355 329 341 350 337 345 342 341 343 340 331 315 299 289 285 283 284 281
148 133 88 45 349 335 316 332 357 357 356 360 353 358 342 347 338 349 353 344 353 353 343 349 334 340 335 322 310 306 302 295
103 88 39 358 18 4 339 321 354 358 355 336 344 341 353 339 338 348 345 342 353 350 357 5 9 356 321 312 312 309 305 310
112 105 162 38 19 26 343 24 11 353 344 344 341 336 348 346 341 351 344 356 347 358 2 359 359 0 355 342 312 319 321 254
111 105 178 42 16 20 357 18 360 355 3 355 348 352 349 350 328 339 351 349 346 350 355 360 3 20 14 19 42 8 331 288
136 99 44 14 8 8 358 357 354 354 359 3 355 0 353 341 332 3 356 338 343 352 355 359 8 23 35 54 45 55 54 70
87 72 33 6 358 5 5 357 358 354 358 343 353 338 347 350 8 6 345 346 8 342 356 3 14 37 48 45 42 42 47 68
133 19 2 39 13 359 21 1 348 351 357 342 339 332 337 3 351 357 353 344 352 358 16 3 18 28 34 45 41 42 48 53
85 41 92 45 360 29 17 353 349 350 354 336 343 344 345 340 1 352 348 347 0 33 10 3 35 27 36 37 35 25 44 51
50 45 29 20 30 34 359 340 344 357 331 352 344 6 17 21 10 17 358 357 56 40 10 44 41 40 22 28 43 43 54 47